[[{"header":{"parameterUnit":"m.s-1","parameterCategory":1,"la1":30.2991,"la2":30.254,"lo1":-89.0895,"lo2":-89.0444,"dy":0.0017,"dx":0.0017,"nx":28,"ny":28,"refTime":"2025-02-24T03:00:00:Z","depth":0,"parameterNumber":2,"parameterNumberName":"U-component_of_WINDS"},"data":[0,0,0,0,0,0,0,0,0,0,0,0,0,0,0,0,0,0,0,0,0,0,0,0,0,0,0,0,0,0,0,0,0,0,0,0,0,0,0,0,0,0,0,0,0,0,0,0,0,0,0,0,0,0,0,0,0,0,-4.4679,-4.4681,0,-4.4799,-4.48,-4.4801,-4.4727,-4.4723,-4.472,-4.4717,-4.4837,-4.4844,-4.485,0,0,0,0,0,0,0,0,0,0,0,0,0,-4.4386,-4.4391,-4.4679,-4.4681,-4.4682,-4.4798,-4.48,-4.4802,-4.4728,-4.4723,-4.4719,-4.4715,-4.4835,-4.4843,-4.4851,0,0,0,0,0,0,0,0,0,0,0,0,0,-4.451,-4.4393,-4.4679,-4.4659,-4.4659,-4.4798,-4.48,-4.4802,-4.4728,-4.4723,-4.4718,-4.4713,-4.4833,-4.4842,-4.4852,-4.5017,0,0,-4.4881,-4.4886,0,0,0,0,0,0,0,0,-4.4503,-4.4521,-4.4661,-4.4661,-4.4661,-4.4743,-4.4741,-4.4874,-4.473,-4.4702,-4.4717,-4.471,-4.481,-4.4821,-4.4855,-4.5023,-4.5028,-4.4882,-4.4888,-4.4892,-4.4895,0,0,0,0,0,0,0,-4.4494,-4.4515,-4.4726,-4.4663,-4.4663,-4.4644,-4.4656,-4.4766,-4.4784,-4.4704,-4.4699,-4.4714,-4.4809,-4.4846,-4.4857,-4.5029,-4.4882,-4.4891,-4.4897,-4.49,-4.5339,-4.5344,0,0,0,0,0,0,-4.4488,-4.4508,-4.4723,-4.473,-4.4567,-4.4654,-4.4667,-4.4722,-4.4783,-4.4787,-4.4718,-4.471,-4.4832,-4.4846,-4.4861,-4.506,-4.4892,-4.4901,-4.4907,-4.5333,-4.534,-4.5346,0,0,0,0,0,0,-4.4482,-4.4507,-4.4718,-4.4618,-4.4643,-4.4664,-4.4726,-4.4727,-4.4764,-4.4794,-4.4796,-4.4753,-4.4828,-4.4848,-4.4979,-4.5063,-4.4906,-4.4915,-4.5326,-4.5335,-4.5343,-4.5457,0,0,0,0,0,0,-4.4473,-4.4506,-4.4569,-4.462,-4.4649,-4.4835,-4.4731,-4.4733,-4.4781,-4.4771,-4.4827,-4.4831,-4.4826,-4.4965,-4.4989,-4.5073,-4.4922,-4.5319,-4.533,-4.534,-4.5446,-4.5469,-4.5488,0,0,0,0,0,-4.4463,-4.4596,-4.4573,-4.4599,-4.4729,-4.484,-4.4856,-4.4848,-4.4788,-4.4852,-4.4871,-4.4829,-4.5049,-4.4979,-4.5005,-4.5094,-4.5313,-4.5327,-4.534,-4.5437,-4.5465,-4.5488,0,0,0,0,0,0,-4.4554,-4.4602,-4.4577,-4.473,-4.4782,-4.4827,-4.4907,-4.4877,-4.4946,-4.4934,-4.492,-4.4933,-4.5071,-4.5095,-4.5016,-4.5257,-4.5172,-4.5191,-4.5237,-4.5264,-4.5284,-4.5276,-4.493,0,0,0,0,0,-4.4592,-4.4678,-4.4715,-4.4847,-4.4874,-4.4887,-4.4934,-4.4924,-4.4976,-4.4997,-4.5025,-4.5077,-4.5158,-4.5211,-4.5287,-4.5448,-4.546,-4.5522,-4.5543,-4.5561,-4.5578,-4.5666,-4.5694,-4.5389,-4.5389,-4.5389,0,0,-4.4671,-4.4708,-4.4764,-4.4867,-4.4905,-4.4995,-4.4905,-4.5003,-4.507,-4.5011,-4.5138,-4.5161,-4.5217,-4.5365,-4.5431,-4.5389,-4.5664,-4.5577,-4.5591,-4.5599,-4.5682,-4.5711,-4.5737,-4.5398,-4.5396,-4.5395,0,0,-4.4862,-4.4898,-4.5013,-4.5053,-4.5112,-4.5119,-4.5147,-4.5197,-4.521,-4.5337,-4.5295,-4.5373,-4.5512,-4.5555,-4.5594,-4.5801,-4.5766,-4.5826,-4.5936,-4.6022,-4.6046,-4.6067,-4.6143,-4.6169,-4.5842,-4.5842,-4.5843,0,-4.4953,-4.5087,-4.5075,-4.5177,-4.5224,-4.5175,-4.5291,-4.533,-4.5411,-4.5444,-4.5396,-4.557,-4.5605,-4.5762,-4.5812,-4.5846,-4.5877,-4.582,-4.6044,-4.6065,-4.6085,-4.6156,-4.6184,-4.5849,-4.5849,-4.5848,-4.5847,0,-4.5197,-4.5291,-4.5376,-4.5456,-4.5512,-4.562,-4.5624,-4.5682,-4.5666,-4.5678,-4.5808,-4.5847,-4.5931,-4.5966,-4.5951,-4.6122,-4.6094,-4.6045,-4.596,-4.6121,-4.6188,-4.6215,-4.586,-4.5857,-4.5855,-4.5853,0,0,-4.545,-4.5522,-4.5554,-4.559,-4.5652,-4.5724,-4.5829,-4.5911,-4.5962,-4.6019,-4.6108,-4.6226,-4.6181,-4.6227,-4.6216,-4.6291,-4.6453,-4.6232,-4.6233,-4.6274,-4.6645,-4.6683,-4.6715,-4.6429,-4.6434,-4.6438,-4.664,0,-4.5646,-4.5832,-4.5824,-4.5998,-4.6085,-4.6039,-4.6131,-4.6179,-4.6192,-4.6267,-4.6281,-4.6367,-4.63,-4.6328,-4.64,-4.6418,-4.6528,-4.6403,-4.6512,-4.6516,-4.6502,-4.6749,-4.679,-4.6979,-4.6666,-4.6671,-4.6674,0,-4.59,-4.5967,-4.615,-4.6199,-4.6235,-4.6318,-4.6393,-4.6465,-4.6518,-4.6522,-4.6573,-4.655,-4.6656,-4.6566,-4.6713,-4.6629,-4.6672,-4.6688,-4.6695,-4.6707,-4.6607,-4.6769,-4.7039,-4.7068,-4.6715,-4.6711,-4.6708,0,-4.6069,-4.6204,-4.6331,-4.6363,-4.6423,-4.6483,-4.6511,-4.6558,-4.6608,-4.6673,-4.6705,-4.6781,-4.6823,-4.6883,-4.688,-4.6815,-4.703,-4.6939,-4.7037,-4.7038,-4.7086,-4.7084,-4.7369,-4.7111,-4.7111,-4.711,-4.711,0,-4.629,-4.6404,-4.6408,-4.6487,-4.6613,-4.6602,-4.6727,-4.6748,-4.679,-4.6872,-4.6836,-4.6913,-4.6904,-4.6981,-4.698,-4.7103,-4.7121,-4.7128,-4.7127,-4.7133,-4.7132,-4.7163,-4.715,-4.7118,-4.7116,-4.7115,-4.7113,0,-4.6501,-4.6508,-4.6644,-4.669,-4.6704,-4.6795,-4.6834,-4.6908,-4.6918,-4.7021,-4.7045,-4.7061,-4.715,-4.7153,-4.7255,-4.7254,-4.7404,-4.7387,-4.7387,-4.7385,-4.7483,-4.7475,-4.7799,-4.7842,-4.7555,-4.7558,-4.756,0,-4.6643,-4.673,-4.6785,-4.6837,-4.6869,-4.6953,-4.7004,-4.6996,-4.705,-4.7117,-4.7183,-4.7269,-4.7338,-4.7482,-4.7502,-4.758,-4.7566,-4.7674,-4.7577,-4.7581,-4.757,-4.7566,-4.7575,-4.7694,-4.7697,-4.77,-4.7702,0,-4.6894,-4.6894,-4.6969,-4.7046,-4.7108,-4.7168,-4.7224,-4.7269,-4.7266,-4.7329,-4.7421,-4.7474,-4.7578,-4.7664,-4.774,-4.7767,-4.7735,-4.7732,-4.7759,-4.7767,-4.7764,-4.7769,-4.7441,-4.7725,-4.7723,-4.7721,-4.772,-4.7719,-4.7076,-4.7152,-4.7203,-4.7288,-4.7329,-4.7382,-4.7454,-4.7473,-4.755,-4.7635,-4.7624,-4.7726,-4.7776,-4.7874,-4.7908,-4.7987,-4.7949,-4.7988,-4.7998,-4.8009,-4.802,-4.775,-4.8,-4.7999,-4.7999,-4.7998,-4.7998,0,-4.7328,-4.7358,-4.7436,-4.7516,-4.7583,-4.7546,-4.7606,-4.7664,-4.7755,-4.7804,-4.7872,-4.7977,-4.806,-4.8087,-4.8167,-4.8225,-4.8212,-4.8247,-4.8243,-4.825,-4.8048,-4.8018,-4.8256,-4.8256,-4.8256,-4.8256,-4.8256,-4.8256,-4.7466,-4.7593,-4.7598,-4.7744,-4.7773,-4.7873,-4.791,-4.7959,-4.7998,-4.8117,-4.8186,-4.8203,-4.8243,-4.8326,-4.8401,-4.8406,-4.8438,-4.8479,-4.8479,-4.829,-4.8264,-4.824,-4.8211,-4.8486,-4.8486,-4.8675,-4.8676,-4.8678]},{"header":{"parameterUnit":"m.s-1","parameterCategory":1,"la1":30.2991,"la2":30.254,"lo1":-89.0895,"lo2":-89.0444,"dy":0.0017,"dx":0.0017,"nx":28,"ny":28,"refTime":"2025-02-24T03:00:00:Z","depth":0,"parameterNumber":3,"parameterNumberName":"V-component_of_WINDS"},"data":[0,0,0,0,0,0,0,0,0,0,0,0,0,0,0,0,0,0,0,0,0,0,0,0,0,0,0,0,0,0,0,0,0,0,0,0,0,0,0,0,0,0,0,0,0,0,0,0,0,0,0,0,0,0,0,0,0,0,-4.9022,-4.9022,0,-4.9025,-4.9025,-4.9025,-4.8954,-4.8952,-4.895,-4.8948,-4.8952,-4.8954,-4.8956,0,0,0,0,0,0,0,0,0,0,0,0,0,-4.8952,-4.8954,-4.9022,-4.9022,-4.9022,-4.9025,-4.9025,-4.9025,-4.8954,-4.8952,-4.8949,-4.8947,-4.8952,-4.8954,-4.8956,0,0,0,0,0,0,0,0,0,0,0,0,0,-4.8972,-4.8955,-4.9022,-4.8987,-4.8984,-4.9025,-4.9025,-4.9025,-4.8955,-4.8952,-4.8949,-4.8946,-4.8951,-4.8954,-4.8956,-4.9032,0,0,-4.8965,-4.8966,0,0,0,0,0,0,0,0,-4.8971,-4.8975,-4.8992,-4.8989,-4.8986,-4.8986,-4.9002,-4.9027,-4.8955,-4.8966,-4.8948,-4.8945,-4.8966,-4.8967,-4.8974,-4.9032,-4.9032,-4.8965,-4.8967,-4.8968,-4.8969,0,0,0,0,0,0,0,-4.897,-4.8974,-4.9023,-4.8992,-4.8988,-4.897,-4.897,-4.9007,-4.8982,-4.8965,-4.8959,-4.8961,-4.8964,-4.8972,-4.8974,-4.9032,-4.8965,-4.8968,-4.897,-4.8971,-4.915,-4.9153,0,0,0,0,0,0,-4.8973,-4.8973,-4.9023,-4.9023,-4.8971,-4.8974,-4.8974,-4.8989,-4.8981,-4.8977,-4.8963,-4.8957,-4.8968,-4.8971,-4.8974,-4.906,-4.8968,-4.8971,-4.8973,-4.9147,-4.9151,-4.9154,0,0,0,0,0,0,-4.8972,-4.8978,-4.9023,-4.8997,-4.9001,-4.8978,-4.8996,-4.899,-4.8998,-4.898,-4.8975,-4.8976,-4.8966,-4.897,-4.9017,-4.9059,-4.8972,-4.8975,-4.9143,-4.9148,-4.9152,-4.9235,0,0,0,0,0,0,-4.897,-4.8978,-4.9007,-4.8998,-4.9003,-4.9067,-4.8999,-4.8993,-4.9004,-4.8996,-4.8991,-4.8987,-4.8964,-4.9013,-4.902,-4.9062,-4.8977,-4.9139,-4.9145,-4.9151,-4.9229,-4.9242,-4.9253,0,0,0,0,0,-4.8968,-4.9031,-4.9009,-4.9015,-4.9039,-4.907,-4.9072,-4.9044,-4.9007,-4.9036,-4.9024,-4.8988,-4.9054,-4.9019,-4.9026,-4.9069,-4.9137,-4.9144,-4.915,-4.9223,-4.9239,-4.9253,0,0,0,0,0,0,-4.9047,-4.9029,-4.9005,-4.9067,-4.907,-4.9058,-4.9093,-4.9063,-4.9077,-4.9069,-4.9033,-4.9033,-4.9086,-4.9082,-4.9044,-4.9141,-4.9089,-4.9097,-4.9141,-4.9157,-4.9169,-4.9169,-4.8979,0,0,0,0,0,-4.9071,-4.9098,-4.9081,-4.9137,-4.914,-4.9116,-4.9129,-4.9107,-4.9109,-4.911,-4.9101,-4.9105,-4.9126,-4.9141,-4.916,-4.9227,-4.9225,-4.926,-4.9273,-4.9283,-4.9291,-4.9325,-4.934,-4.9176,-4.9176,-4.9176,0,0,-4.9122,-4.9116,-4.9135,-4.9153,-4.9153,-4.9181,-4.9118,-4.9151,-4.9172,-4.9115,-4.9159,-4.9153,-4.9155,-4.9212,-4.9237,-4.921,-4.9335,-4.9292,-4.93,-4.9302,-4.9334,-4.9349,-4.9363,-4.9181,-4.918,-4.9179,0,0,-4.9229,-4.9228,-4.9274,-4.9274,-4.9275,-4.9258,-4.9269,-4.9261,-4.9254,-4.9298,-4.9255,-4.9279,-4.9317,-4.9319,-4.9325,-4.9431,-4.9398,-4.9438,-4.9503,-4.9537,-4.955,-4.9561,-4.9598,-4.9612,-4.9446,-4.9446,-4.9446,0,-4.9293,-4.9334,-4.9301,-4.9336,-4.9345,-4.9294,-4.9339,-4.9342,-4.9349,-4.9355,-4.9325,-4.9371,-4.9368,-4.9425,-4.945,-4.9457,-4.9468,-4.9439,-4.955,-4.9561,-4.9571,-4.9606,-4.962,-4.9451,-4.945,-4.945,-4.9449,0,-4.9411,-4.944,-4.9477,-4.9484,-4.9496,-4.9537,-4.9509,-4.9526,-4.9502,-4.9488,-4.9532,-4.9527,-4.9543,-4.9555,-4.9532,-4.9608,-4.9591,-4.9557,-4.9503,-4.9592,-4.9624,-4.9638,-4.9458,-4.9456,-4.9455,-4.9453,0,0,-4.9571,-4.9556,-4.9571,-4.9572,-4.9568,-4.9589,-4.9626,-4.9641,-4.9656,-4.9661,-4.9691,-4.9723,-4.969,-4.9698,-4.9674,-4.9704,-4.9787,-4.9665,-4.9664,-4.9687,-4.9869,-4.9895,-4.9911,-4.9764,-4.9767,-4.9769,-4.9868,0,-4.9674,-4.9737,-4.9707,-4.9773,-4.9799,-4.9749,-4.9781,-4.9782,-4.977,-4.9789,-4.9775,-4.9798,-4.9753,-4.9757,-4.9784,-4.9771,-4.9822,-4.9763,-4.9792,-4.9793,-4.9793,-4.9928,-4.9956,-5.005,-4.9881,-4.9883,-4.9884,0,-4.9804,-4.9814,-4.9882,-4.9871,-4.988,-4.991,-4.992,-4.9939,-4.9938,-4.9927,-4.9934,-4.9903,-4.9938,-4.9885,-4.9933,-4.9893,-4.9903,-4.9898,-4.9901,-4.9903,-4.9844,-4.9933,-5.008,-5.0094,-4.9904,-4.9902,-4.9901,0,-4.9913,-4.9943,-4.9987,-4.999,-4.9978,-5.0,-4.9996,-4.9992,-5.0002,-5.0011,-5.0017,-5.003,-5.0037,-5.0048,-5.0022,-4.9986,-5.0073,-5.0018,-5.0064,-5.0065,-5.0085,-5.0084,-5.0235,-5.0092,-5.0091,-5.0091,-5.0091,0,-5.0032,-5.0075,-5.0035,-5.0063,-5.0109,-5.0074,-5.0121,-5.0112,-5.0108,-5.0133,-5.0091,-5.0115,-5.0078,-5.0098,-5.0078,-5.0119,-5.0123,-5.0115,-5.0109,-5.0119,-5.012,-5.0125,-5.0118,-5.0095,-5.0094,-5.0093,-5.0093,0,-5.0161,-5.0136,-5.0181,-5.0165,-5.0162,-5.0197,-5.0183,-5.0208,-5.0191,-5.0222,-5.0228,-5.0203,-5.0224,-5.0198,-5.0217,-5.0203,-5.026,-5.0245,-5.0261,-5.0256,-5.0304,-5.0299,-5.0463,-5.0483,-5.0327,-5.0329,-5.033,0,-5.0239,-5.0271,-5.0258,-5.0271,-5.0269,-5.029,-5.0299,-5.0265,-5.0277,-5.0277,-5.0301,-5.0318,-5.033,-5.0366,-5.035,-5.0364,-5.0348,-5.0405,-5.035,-5.0359,-5.0349,-5.0347,-5.035,-5.0416,-5.0418,-5.042,-5.0421,0,-5.038,-5.0365,-5.038,-5.039,-5.0402,-5.0409,-5.0413,-5.0426,-5.039,-5.0405,-5.0425,-5.0434,-5.0453,-5.047,-5.048,-5.0475,-5.0443,-5.0438,-5.0449,-5.046,-5.0467,-5.0463,-5.0291,-5.0434,-5.0433,-5.0432,-5.0431,-5.0431,-5.0486,-5.0511,-5.0505,-5.0522,-5.0521,-5.0525,-5.0546,-5.0531,-5.0548,-5.0559,-5.0538,-5.0564,-5.056,-5.0569,-5.0568,-5.0587,-5.0563,-5.058,-5.0584,-5.0589,-5.0596,-5.0464,-5.0589,-5.0589,-5.0588,-5.0588,-5.0588,0,-5.0624,-5.0616,-5.0633,-5.0638,-5.0651,-5.0617,-5.0619,-5.0633,-5.0655,-5.0654,-5.0666,-5.0689,-5.0705,-5.0689,-5.0702,-5.0721,-5.0706,-5.0725,-5.0724,-5.0723,-5.0617,-5.0606,-5.0737,-5.0737,-5.0737,-5.0737,-5.0737,-5.0737,-5.0697,-5.0737,-5.0722,-5.076,-5.0753,-5.0777,-5.078,-5.0783,-5.0782,-5.0808,-5.0821,-5.081,-5.0803,-5.0814,-5.0828,-5.0822,-5.0829,-5.0854,-5.0844,-5.0745,-5.0731,-5.0717,-5.0706,-5.0856,-5.0856,-5.0948,-5.0949,-5.095]}]]